HEBOWX Weather Reports


Display with metric or nautical units.
time (UTC)temp
F
wind
direction
speed
MPH
gust
MPH
rain 1hr
in
rain 24hr
in
rain mn
in
humidity
%
barometer
mb
20260901030045 56 303 2.0 3.0 0.00 0.00 0.00 59 1008.0
20260901025545 57 289 1.0 3.0 0.00 0.00 0.00 57 1007.7
20260901025045 57 327 0.0 2.0 0.00 0.00 0.00 55 1007.4
20260901024545 57 327 1.0 2.0 0.00 0.00 0.00 57 1007.3
20260901024044 57 338 1.0 2.0 0.00 0.00 0.00 57 1007.9
20260901023545 58 0 0.0 0.0 0.00 0.00 0.00 56 1007.6
20260901023045 58 0 0.0 0.0 0.00 0.00 0.00 56 1007.8
20260901022544 58 0 0.0 0.0 0.00 0.00 0.00 56 1007.8
20260901022044 57 0 0.0 0.0 0.00 0.00 0.00 55 1008.6
20260901021544 58 0 0.0 0.0 0.00 0.00 0.00 57 1008.0
20260901021044 58 0 0.0 0.0 0.00 0.00 0.00 58 1007.9
20260901020545 58 0 0.0 0.0 0.00 0.00 0.00 56 1007.5
20260901020044 58 0 0.0 0.0 0.00 0.00 0.00 56 1007.9
20260901015544 59 0 0.0 0.0 0.00 0.00 0.00 57 1008.2
20260901015044 59 309 0.0 0.0 0.00 0.00 0.00 54 1007.5
20260901014544 59 330 0.0 0.0 0.00 0.00 0.00 53 1008.5
20260901014044 59 0 0.0 0.0 0.00 0.00 0.00 53 1008.4
20260901013544 59 0 0.0 0.0 0.00 0.00 0.00 52 1008.8
20260901013044 60 0 0.0 0.0 0.00 0.00 0.00 53 1008.3
20260901012544 60 0 0.0 0.0 0.00 0.00 0.00 54 1007.7
20260901012044 60 0 0.0 4.0 0.00 0.00 0.00 53 1007.8
20260901011544 61 0 0.0 4.0 0.00 0.00 0.00 53 1008.0
20260901011044 62 274 0.0 4.0 0.00 0.00 0.00 53 1007.8
20260901010545 62 0 1.0 3.0 0.00 0.00 0.00 51 1007.7
20260901010045 62 277 0.0 3.0 0.00 0.00 0.00 52 1007.9
20260901005544 63 280 0.0 2.0 0.00 0.00 0.00 51 1008.0
20260901005044 63 280 0.0 1.0 0.00 0.00 0.00 50 1007.9
20260901004636 63 0 0.0 0.0 0.00 0.00 0.00 50 1007.9
20260901004544 63 0 0.0 0.0 0.00 0.00 0.00 50 1007.9
20260901004044 64 270 0.0 4.0 0.00 0.00 0.00 49 1007.9
20260901003544 64 267 1.0 4.0 0.00 0.00 0.00 49 1007.9
20260901003044 64 275 2.0 4.0 0.00 0.00 0.00 47 1008.5
20260901002544 64 268 1.0 3.0 0.00 0.00 0.00 47 1007.9
20260901002046 64 273 1.0 4.0 0.00 0.00 0.00 48 1007.9
20260901001544 64 259 2.0 4.0 0.00 0.00 0.00 48 1007.9
20260901001044 64 270 1.0 4.0 0.00 0.00 0.00 46 1007.9
20260901000545 65 273 3.0 4.0 0.00 0.00 0.00 46 1008.0
20260901000045 65 274 1.0 7.0 0.00 0.00 0.00 46 1009.4
20260831235544 65 243 2.0 7.0 0.00 0.00 0.00 45 1008.6
20260831235045 65 260 3.0 7.0 0.00 0.00 0.00 45 1008.0
20260831234544 66 259 2.0 4.0 0.00 0.00 0.00 45 1008.0
20260831234044 66 266 0.0 4.0 0.00 0.00 0.00 47 1008.0
20260831233544 66 254 0.0 3.0 0.00 0.00 0.00 47 1008.0
20260831233044 66 229 0.0 2.0 0.00 0.00 0.00 47 1008.9
20260831232544 66 242 0.0 2.0 0.00 0.00 0.00 47 1008.4
20260831232045 66 278 0.0 4.0 0.00 0.00 0.00 44 1008.2
20260831231544 66 0 0.0 4.0 0.00 0.00 0.00 47 1008.2
20260831231044 66 273 0.0 4.0 0.00 0.00 0.00 44 1008.3
20260831230544 66 240 0.0 3.0 0.00 0.00 0.00 47 1008.3
20260831230044 66 284 0.0 3.0 0.00 0.00 0.00 47 1009.5
20260831225544 66 215 0.0 2.0 0.00 0.00 0.00 44 1008.8
20260831225044 66 245 0.0 2.0 0.00 0.00 0.00 48 1008.6
20260831224544 66 0 0.0 2.0 0.00 0.00 0.00 49 1008.3
20260831224044 66 245 0.0 2.0 0.00 0.00 0.00 48 1008.9
20260831223544 66 0 0.0 0.0 0.00 0.00 0.00 50 1008.3
20260831223044 66 0 0.0 0.0 0.00 0.00 0.00 50 1009.3
20260831222544 66 0 0.0 0.0 0.00 0.00 0.00 50 1008.6
20260831222044 66 0 0.0 0.0 0.00 0.00 0.00 50 1008.8
20260831221544 66 0 0.0 0.0 0.00 0.00 0.00 51 1008.9
20260831221044 66 0 0.0 0.0 0.00 0.00 0.00 51 1008.6
20260831220544 66 0 0.0 0.0 0.00 0.00 0.00 50 1008.7
20260831220044 66 0 0.0 0.0 0.00 0.00 0.00 50 1008.6
20260831215544 66 0 0.0 0.0 0.00 0.00 0.00 51 1008.9
20260831215044 65 0 0.0 0.0 0.00 0.00 0.00 51 1008.8
20260831214544 65 0 0.0 0.0 0.00 0.00 0.00 50 1008.4
20260831214044 65 0 0.0 0.0 0.00 0.00 0.00 46 1008.4
20260831213544 65 0 0.0 0.0 0.00 0.00 0.00 50 1008.5
20260831213044 65 0 0.0 0.0 0.00 0.00 0.00 46 1009.2
20260831212544 65 0 0.0 0.0 0.00 0.00 0.00 51 1008.5
20260831212044 65 0 0.0 0.0 0.00 0.00 0.00 50 1008.5
20260831211544 66 0 0.0 0.0 0.00 0.00 0.00 50 1009.3
20260831211044 66 0 0.0 0.0 0.00 0.00 0.00 51 1008.5
20260831210544 66 0 0.0 0.0 0.00 0.00 0.00 51 1008.5
20260831210044 66 0 0.0 0.0 0.00 0.00 0.00 51 1008.5
20260831205544 65 0 0.0 0.0 0.00 0.00 0.00 51 1008.5
20260831205044 65 0 0.0 0.0 0.00 0.00 0.00 52 1008.5
20260831204544 65 0 0.0 0.0 0.00 0.00 0.00 52 1008.5
20260831204044 65 0 0.0 0.0 0.00 0.00 0.00 52 1008.6
20260831203544 65 0 0.0 0.0 0.00 0.00 0.00 52 1009.9
20260831203044 65 282 0.0 0.0 0.00 0.00 0.00 52 1009.3
20260831202544 65 351 0.0 0.0 0.00 0.00 0.00 52 1008.6
20260831202044 65 0 0.0 0.0 0.00 0.00 0.00 52 1009.2
20260831201544 65 0 0.0 0.0 0.00 0.00 0.00 53 1009.2
20260831201044 65 351 0.0 0.0 0.00 0.00 0.00 53 1008.7
20260831200544 65 0 0.0 0.0 0.00 0.00 0.00 53 1009.3
20260831200044 65 0 0.0 0.0 0.00 0.00 0.00 53 1009.2
20260831195544 65 0 0.0 0.0 0.00 0.00 0.00 54 1009.8
20260831195044 65 0 0.0 2.0 0.00 0.00 0.00 52 1009.5
20260831194544 65 260 0.0 2.0 0.00 0.00 0.00 54 1009.4
20260831194044 65 253 0.0 2.0 0.00 0.00 0.00 54 1009.5
20260831193544 65 0 0.0 0.0 0.00 0.00 0.00 55 1008.9
20260831193044 65 0 0.0 0.0 0.00 0.00 0.00 55 1009.4
20260831192544 64 0 0.0 0.0 0.00 0.00 0.00 54 1009.4
20260831192044 64 0 0.0 0.0 0.00 0.00 0.00 55 1009.1
20260831191544 64 0 0.0 2.0 0.00 0.00 0.00 55 1009.1
20260831191044 64 0 0.0 2.0 0.00 0.00 0.00 55 1009.2
20260831190544 64 14 0.0 2.0 0.00 0.00 0.00 54 1010.3
20260831190044 64 0 0.0 0.0 0.00 0.00 0.00 54 1009.8
20260831185635 64 0 0.0 0.0 0.00 0.00 0.00 54 1009.2
20260831185544 64 0 0.0 0.0 0.00 0.00 0.00 54 1009.2
20260831185044 64 0 0.0 1.0 0.00 0.00 0.00 54 1009.6
20260831184544 64 0 0.0 1.0 0.00 0.00 0.00 54 1009.2
20260831184044 63 33 0.0 1.0 0.00 0.00 0.00 55 1009.2
20260831183544 63 0 0.0 0.0 0.00 0.00 0.00 54 1009.2
20260831183044 63 0 0.0 0.0 0.00 0.00 0.00 54 1009.5
20260831182544 63 0 0.0 0.0 0.00 0.00 0.00 53 1009.2
20260831182044 63 0 0.0 0.0 0.00 0.00 0.00 53 1009.3
20260831181544 63 0 0.0 0.0 0.00 0.00 0.00 53 1009.3
20260831181044 63 0 0.0 0.0 0.00 0.00 0.00 54 1010.4
20260831180544 62 0 0.0 0.0 0.00 0.00 0.00 55 1009.3
20260831180044 62 0 0.0 0.0 0.00 0.00 0.00 55 1010.3
20260831175543 62 0 0.0 0.0 0.00 0.00 0.00 55 1009.3
20260831175044 62 0 0.0 0.0 0.00 0.00 0.00 53 1009.6
20260831174543 62 0 0.0 0.0 0.00 0.00 0.00 54 1009.7
20260831174044 62 0 0.0 0.0 0.00 0.00 0.00 54 1009.3
20260831173544 61 0 0.0 0.0 0.00 0.00 0.00 54 1009.9
20260831173044 61 200 0.0 0.0 0.00 0.00 0.00 55 1009.9
20260831172543 61 7 0.0 0.0 0.00 0.00 0.00 54 1009.7
20260831172044 61 0 0.0 0.0 0.00 0.00 0.00 55 1009.3
20260831171544 61 0 0.0 0.0 0.00 0.00 0.00 55 1009.3
20260831171043 61 0 0.0 0.0 0.00 0.00 0.00 55 1010.7
20260831170543 61 0 0.0 0.0 0.00 0.00 0.00 55 1009.3
20260831170043 61 7 0.0 0.0 0.00 0.00 0.00 55 1009.7
20260831165543 60 0 0.0 0.0 0.00 0.00 0.00 56 1009.3
20260831165043 60 0 0.0 0.0 0.00 0.00 0.00 54 1009.3
20260831164543 60 0 0.0 0.0 0.00 0.00 0.00 56 1009.4
20260831164043 60 0 0.0 0.0 0.00 0.00 0.00 54 1010.4
20260831163543 60 0 0.0 0.0 0.00 0.00 0.00 54 1009.5
20260831163043 60 0 0.0 0.0 0.00 0.00 0.00 54 1010.1
20260831162544 59 0 0.0 0.0 0.00 0.00 0.00 54 1009.5
20260831162043 59 7 0.0 0.0 0.00 0.00 0.00 54 1009.5
20260831161543 59 0 0.0 0.0 0.00 0.00 0.00 55 1009.5
20260831161043 58 0 0.0 0.0 0.00 0.00 0.00 55 1009.6
20260831160543 58 0 0.0 0.0 0.00 0.00 0.00 56 1009.6
20260831160043 58 0 0.0 0.0 0.00 0.00 0.00 55 1009.6
20260831155543 58 0 0.0 0.0 0.00 0.00 0.00 56 1010.2
20260831155043 58 0 0.0 0.0 0.00 0.00 0.00 55 1010.1
20260831154543 58 0 0.0 0.0 0.00 0.00 0.00 56 1010.1
20260831154043 58 0 0.0 0.0 0.00 0.00 0.00 56 1010.3
20260831153543 58 0 0.0 0.0 0.00 0.00 0.00 56 1009.7
20260831153043 57 0 0.0 2.0 0.00 0.00 0.00 56 1009.7
20260831152544 57 0 0.0 2.0 0.00 0.00 0.00 55 1010.9
20260831152043 57 58 0.0 2.0 0.00 0.00 0.00 55 1009.7
20260831151543 57 67 0.0 4.0 0.00 0.00 0.00 55 1010.3
20260831151135 57 61 0.0 4.0 0.00 0.00 0.00 55 1010.8
20260831151043 57 61 0.0 4.0 0.00 0.00 0.00 55 1010.8
20260831150543 57 40 0.0 4.0 0.00 0.00 0.00 56 1010.2
20260831150043 57 0 1.0 1.0 0.00 0.00 0.00 56 1009.6
20260831145543 57 0 0.0 0.0 0.00 0.00 0.00 56 1009.9
20260831145043 57 0 0.0 2.0 0.00 0.00 0.00 56 1009.9
20260831144543 57 0 0.0 2.0 0.00 0.00 0.00 55 1009.8
20260831144043 57 15 0.0 2.0 0.00 0.00 0.00 50 1009.5
20260831143543 57 0 0.0 0.0 0.00 0.00 0.00 56 1009.4
20260831143043 56 0 0.0 0.0 0.00 0.00 0.00 56 1009.4
20260831142544 56 0 0.0 0.0 0.00 0.00 0.00 56 1009.5
20260831142043 56 0 0.0 0.0 0.00 0.00 0.00 56 1009.4
20260831141543 56 0 0.0 0.0 0.00 0.00 0.00 56 1009.7
20260831141043 55 0 0.0 0.0 0.00 0.00 0.00 57 1009.4
20260831140544 55 0 0.0 0.0 0.00 0.00 0.00 57 1009.4
20260831140043 55 0 0.0 0.0 0.00 0.00 0.00 57 1009.8
20260831135543 55 0 0.0 0.0 0.00 0.00 0.00 57 1009.8
20260831135043 55 0 0.0 0.0 0.00 0.00 0.00 57 1010.1
20260831134543 55 0 0.0 0.0 0.00 0.00 0.00 57 1010.3
20260831134044 55 0 0.0 0.0 0.00 0.00 0.00 57 1010.2
20260831133543 55 0 0.0 0.0 0.00 0.00 0.00 58 1009.6
20260831133043 55 0 0.0 0.0 0.00 0.00 0.00 58 1010.7
20260831132544 55 0 0.0 0.0 0.00 0.00 0.00 58 1009.6
20260831132043 55 0 0.0 0.0 0.00 0.00 0.00 58 1010.8
20260831131543 55 0 0.0 0.0 0.00 0.00 0.00 58 1009.6
20260831131043 55 0 0.0 0.0 0.00 0.00 0.00 58 1009.7
20260831130544 55 0 0.0 0.0 0.00 0.00 0.00 58 1009.7
20260831130043 55 0 0.0 0.0 0.00 0.00 0.00 57 1010.3
20260831125543 55 0 0.0 0.0 0.00 0.00 0.00 57 1010.3
20260831125134 56 0 0.0 0.0 0.00 0.00 0.00 57 1010.3
20260831125043 56 0 0.0 0.0 0.00 0.00 0.00 57 1010.3
20260831124543 55 0 0.0 0.0 0.00 0.00 0.00 56 1009.8
20260831124043 55 0 0.0 0.0 0.00 0.00 0.00 56 1009.8
20260831123543 55 0 0.0 0.0 0.00 0.00 0.00 56 1009.9
20260831123043 56 0 0.0 0.0 0.00 0.00 0.00 56 1010.4
20260831122543 55 0 0.0 0.0 0.00 0.00 0.00 57 1010.1
20260831122043 55 0 0.0 0.0 0.00 0.00 0.00 57 1010.1
20260831121543 55 0 0.0 0.0 0.00 0.00 0.00 57 1010.6
20260831121043 55 0 0.0 0.0 0.00 0.00 0.00 58 1010.3
20260831120543 55 0 0.0 0.0 0.00 0.00 0.00 58 1010.2
20260831120043 55 0 0.0 0.0 0.00 0.00 0.00 58 1010.5
20260831115543 55 0 0.0 0.0 0.00 0.00 0.00 58 1010.3
20260831115043 55 0 0.0 0.0 0.00 0.00 0.00 59 1010.7
20260831114543 55 0 0.0 0.0 0.00 0.00 0.00 59 1010.3
20260831114043 55 0 0.0 0.0 0.00 0.00 0.00 58 1010.3
20260831113543 55 0 0.0 0.0 0.00 0.00 0.00 59 1010.4
20260831113043 55 0 0.0 0.0 0.00 0.00 0.00 59 1011.2
20260831112544 55 0 0.0 0.0 0.00 0.00 0.00 60 1010.4
20260831112043 55 0 0.0 0.0 0.00 0.00 0.00 60 1010.5
20260831111543 55 0 0.0 0.0 0.00 0.00 0.00 60 1010.5
20260831111043 55 0 0.0 0.0 0.00 0.00 0.00 59 1010.5
20260831110543 55 0 0.0 0.0 0.00 0.00 0.00 60 1010.5
20260831110043 55 0 0.0 0.0 0.00 0.00 0.00 61 1010.5
20260831105543 54 0 0.0 0.0 0.00 0.00 0.00 61 1010.4
20260831105043 55 0 0.0 0.0 0.00 0.00 0.00 61 1010.5
20260831104543 54 0 0.0 0.0 0.00 0.00 0.00 61 1010.5
20260831104043 54 0 0.0 0.0 0.00 0.00 0.00 61 1010.6
20260831103543 54 0 0.0 0.0 0.00 0.00 0.00 62 1010.8
20260831103043 54 0 0.0 0.0 0.00 0.00 0.00 62 1010.5
20260831102543 54 0 0.0 0.0 0.00 0.00 0.00 62 1010.5
20260831102043 54 0 0.0 0.0 0.00 0.00 0.00 62 1010.9
20260831101543 54 0 0.0 0.0 0.00 0.00 0.00 63 1010.6
20260831101043 54 0 0.0 0.0 0.00 0.00 0.00 63 1010.9
20260831100543 54 0 0.0 0.0 0.00 0.00 0.00 63 1010.6
20260831100043 54 0 0.0 0.0 0.00 0.00 0.00 63 1010.7
20260831095542 54 0 0.0 0.0 0.00 0.00 0.00 63 1010.7
20260831094543 54 0 0.0 0.0 0.00 0.00 0.00 64 1010.8
20260831094043 54 0 0.0 0.0 0.00 0.00 0.00 64 1010.9
20260831093543 54 0 0.0 0.0 0.00 0.00 0.00 63 1010.9
20260831093043 54 0 0.0 0.0 0.00 0.00 0.00 63 1011.1
20260831092543 54 23 0.0 1.0 0.00 0.00 0.00 62 1011.5
20260831092043 54 49 0.0 1.0 0.00 0.00 0.00 63 1011.7
20260831091543 54 21 0.0 1.0 0.00 0.00 0.00 63 1011.8
20260831091043 53 89 0.0 0.0 0.00 0.00 0.00 63 1011.4
20260831090543 53 89 0.0 0.0 0.00 0.00 0.00 64 1011.5
20260831090043 54 95 0.0 2.0 0.00 0.00 0.00 63 1011.5
20260831085543 54 56 0.0 2.0 0.00 0.00 0.00 63 1011.7
20260831085042 54 109 0.0 2.0 0.00 0.00 0.00 63 1011.6
20260831084543 53 138 0.0 1.0 0.00 0.00 0.00 64 1011.8
20260831084042 53 0 0.0 3.0 0.00 0.00 0.00 64 1011.6
20260831083542 53 119 0.0 3.0 0.00 0.00 0.00 64 1011.6
20260831083042 53 105 0.0 3.0 0.00 0.00 0.00 65 1011.7
20260831082542 53 0 0.0 0.0 0.00 0.00 0.00 65 1011.7
20260831082042 53 102 0.0 4.0 0.00 0.00 0.00 65 1012.5
20260831081542 54 95 0.0 4.0 0.00 0.00 0.00 64 1011.8
20260831081042 53 105 0.0 4.0 0.00 0.00 0.00 65 1011.8
20260831080542 54 113 0.0 2.0 0.00 0.00 0.00 64 1011.9
20260831080042 53 70 0.0 3.0 0.00 0.00 0.00 64 1011.9
20260831075542 54 72 0.0 3.0 0.00 0.00 0.00 64 1011.9
20260831075042 54 74 0.0 3.0 0.00 0.00 0.00 65 1012.1
20260831074542 54 109 0.0 2.0 0.00 0.00 0.00 64 1012.5
20260831074042 54 28 0.0 2.0 0.00 0.00 0.00 63 1012.5
20260831073542 54 11 0.0 1.0 0.00 0.00 0.00 63 1012.2
20260831073042 54 58 0.0 1.0 0.00 0.00 0.00 64 1013.0
20260831072542 54 0 0.0 0.0 0.00 0.00 0.00 64 1012.3
20260831072042 54 71 0.0 5.0 0.00 0.00 0.00 65 1012.3
20260831071542 54 40 0.0 5.0 0.00 0.00 0.00 65 1012.6
20260831071042 54 77 0.0 5.0 0.00 0.00 0.00 66 1012.4
20260831070542 54 54 0.0 5.0 0.00 0.00 0.00 65 1012.4
20260831070042 54 0 0.0 0.0 0.00 0.00 0.00 66 1013.2
20260831065542 53 0 0.0 0.0 0.00 0.00 0.00 67 1013.0
20260831065042 53 0 0.0 3.0 0.00 0.00 0.00 67 1012.5
20260831064542 53 30 0.0 3.0 0.00 0.00 0.00 67 1013.3
20260831064042 53 44 0.0 3.0 0.00 0.00 0.00 67 1012.6
20260831063542 53 32 1.0 3.0 0.00 0.00 0.00 67 1012.5
20260831063042 53 23 0.0 3.0 0.00 0.00 0.00 68 1013.0
20260831062542 53 35 0.0 3.0 0.00 0.00 0.00 68 1012.7
20260831062042 52 77 0.0 3.0 0.00 0.00 0.00 69 1012.6
20260831061542 53 18 0.0 3.0 0.00 0.00 0.00 69 1013.0
20260831061042 53 70 0.0 3.0 0.00 0.00 0.00 70 1012.7
20260831060542 53 51 0.0 3.0 0.00 0.00 0.00 70 1013.4
20260831060042 53 0 0.0 0.0 0.00 0.00 0.00 71 1013.1
20260831055542 53 0 0.0 2.0 0.00 0.00 0.00 71 1013.0
20260831055042 53 46 0.0 2.0 0.00 0.00 0.00 71 1013.0
20260831054542 53 16 0.0 2.0 0.00 0.00 0.00 73 1013.1
20260831054042 53 0 0.0 2.0 0.00 0.00 0.00 74 1013.2
20260831053542 53 0 0.0 2.0 0.00 0.00 0.00 74 1013.3
20260831053042 53 324 0.0 2.0 0.00 0.00 0.00 73 1013.3
20260831052542 53 56 0.0 1.0 0.00 0.00 0.00 73 1013.4
20260831052042 53 0 0.0 4.0 0.00 0.00 0.00 73 1013.5
20260831051542 53 0 0.0 4.0 0.00 0.00 0.00 74 1013.6
20260831051042 53 19 0.0 4.0 0.00 0.00 0.00 74 1013.6
20260831050542 53 0 0.0 0.0 0.00 0.00 0.00 74 1013.8
20260831050042 53 0 0.0 0.0 0.00 0.00 0.00 73 1013.8
20260831045542 54 0 0.0 0.0 0.00 0.00 0.00 73 1013.6
20260831045042 53 0 0.0 0.0 0.00 0.00 0.00 72 1013.7
20260831044542 53 0 0.0 0.0 0.00 0.00 0.00 72 1013.7
20260831044042 54 0 0.0 0.0 0.00 0.00 0.00 72 1013.8
20260831043542 54 0 0.0 0.0 0.00 0.00 0.00 72 1014.3
20260831043042 54 0 0.0 0.0 0.00 0.00 0.00 72 1014.4
20260831042542 54 0 0.0 0.0 0.00 0.00 0.00 72 1013.8
20260831042042 54 0 0.0 0.0 0.00 0.00 0.00 71 1013.8
20260831041542 54 0 0.0 0.0 0.00 0.00 0.00 70 1013.8
20260831041042 54 0 0.0 0.0 0.00 0.00 0.00 71 1014.3
20260831040542 54 0 0.0 0.0 0.00 0.00 0.00 70 1014.0
20260831040042 55 0 0.0 0.0 0.00 0.00 0.00 70 1014.1
20260831035543 55 0 0.0 0.0 0.00 0.00 0.00 69 1014.0
20260831035042 55 0 0.0 0.0 0.00 0.00 0.00 68 1013.8
20260831034542 55 0 0.0 0.0 0.00 0.00 0.00 68 1014.0
20260831034042 55 0 0.0 0.0 0.00 0.00 0.00 68 1014.0
20260831033542 55 0 0.0 0.0 0.00 0.00 0.00 68 1013.8
20260831033042 55 0 0.0 0.0 0.00 0.00 0.00 69 1014.2
20260831032543 55 0 0.0 0.0 0.00 0.00 0.00 69 1014.2
20260831032042 55 0 0.0 0.0 0.00 0.00 0.00 69 1014.0
20260831031542 54 0 0.0 1.0 0.00 0.00 0.00 70 1014.2
20260831031042 54 0 0.0 1.0 0.00 0.00 0.00 71 1014.0
20260831030542 54 57 0.0 1.0 0.00 0.00 0.00 70 1014.0